• Join FlightAware (Why Join?)
  • Login
  • US Flag 
12:48AM EST


 

Airport Tracker/Info


-or-


 

Live Flight TrackerFlight Track Log ✈ N53NW ✈ 17-Oct-2013 ✈ KGKY - KSRC

Flight Track Log - Related Links

Times and Time Zones

All times are in EDT time to prevent confusion due to time zone crossing. See the N53NW flight status page for this flight to view local times or setup timezone preferences in your user account.

Time Position Orientation Groundspeed Altitude Reporting Facility
EDT Latitude Longitude Course Direction KTS MPH feet Rate Location/Type
06:03PM 32.6500 -97.0833 180° South 147 169 1,000  Level Dallas / Fort Worth TRACON
06:03PM 32.6167 -97.0833 180° South 218 251 2,200 1,560 Climbing Dallas / Fort Worth TRACON
06:04PM 32.5667 -97.1000 196° South 219 252 3,600 1,560 Climbing Dallas / Fort Worth TRACON
06:05PM 32.5500 -97.0333 107° East 230 265 5,200 2,100 Climbing Dallas / Fort Worth TRACON
06:06PM 32.5486 -96.9550 91° East 268 308 7,900 2,760 Climbing Fort Worth Center
06:07PM 32.5567 -96.8589 84° East 274 315 11,100 2,880 Climbing Fort Worth Center
06:08PM 32.6106 -96.7969 44° Northeast 251 289 13,700 2,100 Climbing Fort Worth Center
06:09PM 32.6750 -96.7347 39° Northeast 262 302 15,400 1,740 Climbing Fort Worth Center
06:10PM 32.7456 -96.6625 41° Northeast 293 337 17,200 1,740 Climbing Fort Worth Center
06:11PM 32.8181 -96.5928 39° Northeast 317 365 18,900 1,740 Climbing Fort Worth Center
06:12PM 32.8950 -96.5203 38° Northeast 336 387 20,700 1,800 Climbing Fort Worth Center
06:13PM 32.9717 -96.4428 40° Northeast 348 400 22,500 1,800 Climbing Fort Worth Center
06:14PM 33.0483 -96.3650 40° Northeast 348 400 24,300 1,680 Climbing Fort Worth Center
06:15PM 33.1078 -96.2628 55° Northeast 359 413 25,900 1,500 Climbing Fort Worth Center
06:16PM 33.1419 -96.1308 73° East 374 430 27,400 1,500 Climbing Fort Worth Center
06:17PM 33.1803 -96.0036 70° East 387 445 28,900 1,320 Climbing Fort Worth Center
06:18PM 33.2183 -95.8689 71° East 409 471 30,100 1,020 Climbing Fort Worth Center
06:19PM 33.2583 -95.7317 71° East 423 487 31,000 420 Climbing Fort Worth Center
06:20PM 33.2983 -95.5992 70° East 444 511 31,000  Level Fort Worth Center
06:21PM 33.3458 -95.4317 71° East 469 540 31,000  Level Fort Worth Center
06:22PM 33.3914 -95.2739 71° East 483 556 31,000  Level Fort Worth Center
06:23PM 33.4344 -95.1158 72° East 488 562 31,000  Level Fort Worth Center
06:24PM 33.4817 -94.9603 70° East 488 562 31,000  Level Fort Worth Center
06:25PM 33.5267 -94.8069 71° East 488 562 31,000  Level Fort Worth Center
06:26PM 33.5711 -94.6511 71° East 488 562 31,000  Level Fort Worth Center
06:27PM 33.6156 -94.4953 71° East 488 562 31,000  Level Fort Worth Center
06:28PM 33.6600 -94.3414 71° East 488 562 31,000  Level Fort Worth Center
06:29PM 33.7083 -94.1825 70° East 488 562 31,000  Level Fort Worth Center
06:31PM 33.8203 -93.9625 58° Northeast 479 551 31,000  Level Memphis Center
06:32PM 33.8956 -93.8106 59° Northeast 479 551 31,000  Level Memphis Center
06:33PM 33.9661 -93.6656 60° Northeast 479 551 31,000  Level Memphis Center
06:34PM 34.0344 -93.5253 60° Northeast 479 551 31,000  Level Memphis Center
06:35PM 34.1047 -93.3825 59° Northeast 479 551 31,000 -120 Level Memphis Center
06:36PM 34.1750 -93.2367 60° Northeast 479 551 30,800 -1,140 Descending Memphis Center
06:37PM 34.2428 -93.0983 59° Northeast 479 551 28,800 -1,920 Descending Memphis Center
06:38PM 34.3083 -92.9622 60° Northeast 473 544 27,000 -900 Descending Memphis Center
06:39PM 34.3761 -92.8158 61° Northeast 462 532 27,000 -600 Level Memphis Center
06:40PM 34.4369 -92.6867 60° Northeast 448 516 25,900 -1,800 Descending Memphis Center
06:41PM 34.4867 -92.5872 59° Northeast 439 505 23,800 -2,520 Descending Memphis Center
06:41PM 34.4978 -92.5597 64° Northeast 437 503 23,400 -2,460 Descending Memphis Center
06:42PM 34.5539 -92.4425 60° Northeast 417 480 20,900 -2,580 Descending Memphis Center
06:43PM 34.5950 -92.3553 60° Northeast 377 434 18,700 -2,520 Descending Memphis Center
06:43PM 34.6058 -92.3328 60° Northeast 390 449 18,400 -2,460 Descending Memphis Center
06:44PM 34.6489 -92.2406 60° Northeast 361 415 16,200 -2,400 Descending Memphis Center
06:44PM 34.6553 -92.2281 58° Northeast 370 426 16,000 -2,520 Descending Memphis Center
06:45PM 34.7044 -92.1583 49° Northeast 339 390 13,700 -2,640 Descending Memphis Center
06:45PM 34.7214 -92.1461 31° Northeast 348 400 13,400 -2,460 Descending Memphis Center
06:46PM 34.7803 -92.0967 35° Northeast 298 343 11,200 -2,520 Descending Memphis Center
06:46PM 34.7911 -92.0867 37° Northeast 314 361 10,900 -2,520 Descending Memphis Center
06:47PM 34.8583 -92.0350 32° Northeast 301 346 8,400 -2,340 Descending Memphis Center
06:48PM 34.9197 -91.9831 35° Northeast 278 320 6,300 -2,040 Descending Memphis Center
06:49PM 34.9744 -91.9386 34° Northeast 259 298 4,400 -1,260 Descending Memphis Center
06:50PM 35.0125 -91.9036 37° Northeast 225 259 4,000 -600 Descending Memphis Center
06:50PM 35.0272 -91.8939 28° Northeast 238 274 3,800 -1,620 Descending Memphis Center
06:51PM 35.0778 -91.8517 34° Northeast 233 268 2,200 -840 Descending Memphis Center
06:52PM 35.1261 -91.8094 36° Northeast 233 268 2,200  Level Memphis Center
06:57PM 35.2106 -91.7375 36° Northeast  Level Estimated
07:04PM 35.2106 -91.7375 213° Southwest  Level Estimated